User: anonymous   Login
Location: Unspecified
(0.0000°N, 0.0000°E)
Time: 08:08:54
(UTC+00:00)
Language:

DANDE - Orbit

View from above orbital plane
View from above orbital plane
View from above satellite
View from above satellite

Ground track
Ground track

The orbit data is extracted from the following two-line orbital elements,

1 39267U 13055C   19345.80348250 +.00003237 +00000-0 +93727-4 0  9990
2 39267 081.0084 176.1729 0694940 174.3802 186.5733 14.21507339317458
Epoch (UTC): 11 December 2019 19:17:00
Eccentricity: 0.0694940
inclination: 81.0084°
perigee height: 320 km
apogee height: 1320 km
right ascension of ascending node: 176.1729°
argument of perigee: 174.3802°
revolutions per day: 14.21507339
mean anomaly at epoch: 186.5733°
orbit number at epoch: 31745

The dashed part of the orbit path shows where the satellite is in the earth's shadow,  

DLR